This demonstration page uses our WeatherBlox Daily Observations layout. Learn more.

Left ArrowRight Arrow

39.29038, -76.61219

Hourly Observations for February 3, 2017

Temp ( °F °C ) Dew Point ( °F °C ) Humidity (%) Winds ( mph kmh ) Pressure ( in mb ) Visibility ( mi km ) Precip ( " mm )
12:54 am 00:54 undefined 36 2.2 8 -13.3 31 31 undefined N/A 30.24 1024 N/A N/A
1:54 am 01:54 undefined 35 1.7 8 -13.3 32 32 undefined N/A 30.23 1024 N/A N/A
2:54 am 02:54 undefined 35 1.7 8 -13.3 32 32 undefined N/A 30.24 1024 N/A N/A
3:54 am 03:54 undefined 35 1.7 8 -13.3 32 32 undefined N/A 30.26 1025 N/A N/A
4:54 am 04:54 undefined 34 1.1 7 -13.9 32 32 undefined N/A 30.26 1025 N/A N/A
5:54 am 05:54 undefined 33 0.6 8 -13.3 35 35 undefined N/A 30.27 1025 N/A N/A
6:54 am 06:54 undefined 33 0.6 9 -12.8 36 36 undefined N/A 30.28 1025 N/A N/A
7:54 am 07:54 undefined 33 0.6 9 -12.8 36 36 undefined N/A 30.29 1026 N/A N/A
8:54 am 08:54 undefined 34 1.1 10 -12.2 37 37 undefined N/A 30.29 1026 N/A N/A
9:54 am 09:54 undefined 34 1.1 10 -12.2 37 37 undefined N/A 30.28 1025 N/A N/A
10:54 am 10:54 undefined 35 1.7 10 -12.2 35 35 undefined N/A 30.27 1025 N/A N/A
11:54 am 11:54 undefined 36 2.2 9 -12.8 32 32 undefined N/A 30.23 1024 N/A N/A
12:54 pm 12:54 undefined 36 2.2 7 -13.9 30 30 undefined N/A 30.20 1023 N/A N/A
1:54 pm 13:54 undefined 37 2.8 7 -13.9 28 28 undefined N/A 30.17 1022 N/A N/A
2:54 pm 14:54 undefined 36 2.2 7 -13.9 30 30 undefined N/A 30.16 1021 N/A N/A
3:54 pm 15:54 undefined 36 2.2 8 -13.3 31 31 undefined N/A 30.17 1022 N/A N/A
4:54 pm 16:54 undefined 36 2.2 7 -13.9 30 30 undefined N/A 30.19 1022 N/A N/A
5:54 pm 17:54 undefined 35 1.7 7 -13.9 31 31 undefined N/A 30.20 1023 N/A N/A
6:54 pm 18:54 undefined 35 1.7 8 -13.3 32 32 undefined N/A 30.22 1023 N/A N/A
7:54 pm 19:54 undefined 35 1.7 8 -13.3 32 32 undefined N/A 30.24 1024 N/A N/A
8:54 pm 20:54 undefined 33 0.6 7 -13.9 33 33 undefined N/A 30.27 1025 N/A N/A
9:54 pm 21:54 undefined 32 undefined 7 -13.9 35 35 undefined N/A 30.29 1026 N/A N/A
10:54 pm 22:54 undefined 31 -0.6 9 -12.8 40 40 undefined N/A 30.32 1027 N/A N/A
11:54 pm 23:54 undefined 30 -1.1 7 -13.9 38 38 undefined N/A 30.33 1027 N/A N/A

Powered by AerisWeather